Location: Azenweiler
(47.8027°N, 9.4096°E)
Time: 23:40:10
(UTC+00:00)

Cosmos 1553 Rocket - Pass Details

Date: 10 December 2025
Orbit: 942 x 1006 km, 82.9° (Epoch: 19 January)

Event Time Altitude Azimuth Distance (km) Brightness Sun altitude
Rises 05:49:26 0° 347° (NNW) 3,728 6.7 -11.3°
Reaches altitude 10° 05:52:01 10° 343° (NNW) 2,780 6.0 -10.9°
Maximum altitude 05:58:11 52° 269° (W) 1,229 4.2 -10.0°
Drops below altitude 10° 06:04:21 10° 195° (SSW) 2,775 6.5 -9.0°
Sets 06:06:55 0° 190° (S) 3,720 7.2 -8.6°
